Theta_e
347 342 340 341 341 342 338 336 342 340 341 340 341 338 338 336 333 336 334 334 336 328 333 339 335 335 339 340 340 340 339 339 337 335 334 336 341 344 344 345 340 344 342
346 347 340 342 342 341 341 338 337 337 338 339 339 338 338 333 334 337 336 332 339 340 339 337 338 339 339 339 340 340 340 342 345 344 342 342 342 343 345 346 344 333 335
347 346 344 339 337 339 340 342 337 338 339 340 341 339 337 339 340 338 335 337 339 339 332 336 339 339 338 338 339 338 340 343 345 346 347 346 342 341 340 341 340 336 336
345 346 346 332 333 331 333 334 338 338 337 340 342 339 339 338 338 326 327 337 328 338 338 337 331 335 337 337 335 328 337 342 345 347 348 345 346 342 342 341 341 341 341
348 350 332 332 334 339 341 334 337 339 340 339 342 340 339 339 338 333 328 328 339 338 336 335 338 337 337 336 336 330 339 344 344 344 347 344 343 341 343 342 342 339 339
349 345 333 332 328 327 328 330 332 337 338 339 342 340 339 338 339 339 340 340 340 339 336 334 334 334 332 330 328 340 344 343 341 343 342 340 338 336 341 339 341 341 339
347 346 335 334 337 330 330 332 328 331 337 339 341 340 340 340 338 340 340 340 337 336 334 331 330 328 326 326 328 338 344 342 342 342 341 341 336 337 338 339 341 340 341
347 348 344 340 340 335 336 337 331 330 338 338 340 341 339 337 339 339 342 339 338 338 338 334 330 328 325 327 328 336 343 344 340 341 339 331 323 326 331 328 328 329 331
348 347 345 346 340 333 333 339 337 340 335 335 340 340 338 332 342 337 338 340 340 339 338 334 331 329 327 325 327 337 341 341 341 345 346 342 327 327 327 337 339 328 328
346 344 347 347 348 346 346 342 338 337 337 338 339 340 339 332 332 334 338 339 339 340 340 338 334 329 327 326 332 337 341 342 342 341 343 331 329 324 325 326 327 327 327
345 347 346 345 349 344 346 341 339 339 337 339 341 343 346 348 346 348 341 339 342 342 342 341 337 344 338 334 337 336 337 339 339 336 331 324 324 325 326 326 325 325 325
343 346 346 345 343 346 347 347 346 348 346 347 345 345 347 346 346 344 339 340 342 341 343 344 344 344 346 345 342 338 336 337 338 336 325 325 325 325 325 325 324 324 324
343 345 346 345 347 346 344 347 345 345 345 346 347 348 348 347 346 343 341 344 344 346 348 347 348 344 344 341 341 340 339 338 337 335 326 325 325 324 323 324 326 331 337
345 345 344 345 347 347 347 344 344 342 343 345 347 347 345 347 345 345 346 345 345 347 348 346 343 346 343 345 344 343 341 340 338 336 325 324 323 324 327 333 338 340 341
344 345 344 345 345 347 344 343 342 341 343 344 346 347 346 345 345 345 346 345 345 347 346 346 344 344 344 346 345 345 343 344 341 338 328 326 328 333 338 340 340 340 341
345 345 345 346 347 348 348 344 344 344 342 345 345 346 346 345 346 347 347 345 345 348 348 346 348 343 344 345 345 346 346 345 347 345 343 332 336 338 339 340 341 343 344
345 346 345 345 348 346 344 345 344 342 343 344 346 348 349 347 350 348 346 346 346 344 349 346 344 342 342 341 343 346 346 347 347 349 347 347 343 338 339 341 343 344 346
346 346 345 344 347 347 347 344 343 343 343 343 345 346 349 348 349 348 346 346 343 347 343 344 344 342 343 343 345 345 346 346 346 348 348 347 348 347 341 343 345 347 348
346 346 346 345 347 348 347 348 345 345 343 344 344 346 349 348 345 348 346 344 348 346 344 345 343 346 346 344 343 346 346 346 346 345 347 347 347 346 348 347 348 348 346
348 346 348 346 348 348 348 348 346 344 345 343 345 347 348 348 347 348 347 345 349 345 348 347 349 346 345 347 343 345 346 346 346 346 346 345 345 346 346 351 353 350 348
346 349 352 349 350 349 346 347 348 346 345 344 345 347 349 348 349 343 348 343 346 350 348 349 350 346 344 346 348 343 344 346 346 345 345 344 345 345 347 351 351 353 353
345 348 350 351 350 348 350 348 347 347 346 346 348 345 347 347 349 349 349 347 348 347 347 351 351 348 345 348 347 346 344 346 344 343 344 344 345 345 347 350 351 353 353
346 347 348 350 350 349 351 351 351 350 349 348 349 349 349 347 347 352 347 351 345 350 347 353 344 351 344 346 347 351 348 345 345 344 344 344 346 345 346 347 349 352 353
346 348 348 350 349 349 348 348 347 349 349 348 348 348 348 348 348 348 347 348 343 348 351 344 348 345 353 345 346 347 347 351 351 345 345 345 346 348 347 346 348 352 352
347 348 349 349 351 350 350 349 348 351 349 347 348 350 348 349 349 349 350 350 345 349 347 354 347 351 348 350 349 347 348 348 343 350 347 347 346 347 349 348 349 349 354
345 347 348 349 351 353 350 350 350 353 351 351 350 350 348 350 349 350 350 350 350 351 351 350 353 342 354 350 351 350 349 351 348 348 347 346 346 348 349 350 350 351 352
Wind_Speed
14 14 14 15 15 16 15 16 16 16 15 15 16 17 17 18 19 19 19 20 21 20 19 19 18 18 18 18 18 18 19 19 20 20 18 17 16 15 19 21 16 14 17
17 14 16 16 15 16 15 16 16 15 15 15 16 17 17 18 19 19 19 20 19 19 20 19 18 17 18 17 19 18 19 23 22 22 21 18 18 16 17 17 15 16 15
18 16 15 15 15 15 15 14 15 15 16 16 16 16 17 19 18 19 19 19 20 19 19 18 17 15 16 17 16 19 22 25 18 26 17 16 18 19 18 17 18 17 16
17 14 13 14 13 13 13 13 13 15 15 16 16 16 18 19 17 19 20 18 19 19 19 18 16 15 16 16 17 19 21 21 21 21 19 17 16 19 19 19 18 18 17
20 16 14 13 11 11 12 12 11 12 13 14 15 16 17 18 19 19 20 20 18 17 17 16 15 15 16 15 17 20 22 24 23 15 15 15 15 18 19 19 18 18 17
15 13 14 11 10 9 9 9 10 11 12 14 14 15 16 17 18 19 18 16 15 15 15 16 16 14 15 16 17 20 23 21 16 16 16 14 17 16 18 17 17 17 15
17 13 13 11 9 9 9 9 10 11 12 13 14 15 16 16 16 18 17 17 18 17 18 17 16 16 16 16 17 20 25 22 15 15 14 15 15 16 14 13 14 14 14
18 16 11 11 10 10 11 10 10 11 12 14 13 15 15 16 15 17 17 18 18 18 18 19 18 17 17 17 17 21 22 17 12 14 14 16 16 14 14 14 12 11 10
14 13 11 9 9 10 11 11 12 12 13 14 14 14 15 16 15 15 16 18 19 18 19 19 18 17 17 17 20 23 23 21 14 15 13 11 15 15 14 14 11 12 12
13 12 13 11 8 11 9 11 12 13 13 14 14 14 15 16 15 15 14 16 16 17 18 18 18 19 18 18 20 21 19 16 12 11 10 13 12 13 13 12 12 12 12
12 14 12 9 13 9 10 10 12 13 14 14 14 16 18 12 12 13 14 17 17 18 18 19 19 17 18 21 21 18 17 11 10 9 9 12 12 12 13 13 12 12 12
12 12 11 14 10 13 10 11 11 13 11 12 11 13 14 16 14 12 15 15 15 17 17 18 17 15 10 8 10 14 11 11 11 9 11 11 12 12 13 12 13 13 13
12 14 13 12 13 10 9 10 11 7 10 13 12 12 13 13 14 10 12 10 9 11 8 10 9 11 9 9 11 11 11 10 10 8 11 11 12 13 13 14 15 15 15
12 12 12 12 7 10 9 12 9 10 10 11 11 12 13 12 11 8 8 8 8 7 9 10 10 9 9 9 10 11 11 11 10 8 13 13 14 14 15 15 15 15 15
13 11 11 11 13 11 16 11 10 13 13 12 11 10 11 10 11 10 7 8 7 6 8 8 9 9 9 8 9 10 10 11 11 8 14 14 14 15 15 15 15 15 15
13 12 12 11 11 12 13 13 11 12 14 13 10 10 12 11 10 10 9 7 6 6 8 5 5 6 7 7 7 8 9 9 9 10 7 14 14 14 14 14 15 16 16
13 12 12 12 11 9 17 13 11 14 12 12 10 12 10 11 8 9 7 10 6 8 7 7 6 6 5 6 7 8 8 9 8 9 8 5 12 13 13 13 14 16 16
14 13 14 12 12 11 13 13 12 13 12 11 11 10 10 10 9 9 8 7 7 6 6 5 6 6 6 5 7 7 7 6 7 7 5 6 6 3 11 13 15 16 17
14 14 14 13 14 12 15 11 13 14 12 12 12 9 8 6 9 5 7 5 8 4 5 5 5 5 6 5 7 6 6 6 6 5 5 7 7 7 3 13 16 16 16
13 14 16 14 13 13 11 13 12 13 12 12 10 12 8 6 6 5 6 7 6 4 4 3 8 4 4 1 7 5 5 5 5 5 4 6 4 6 3 4 6 9 15
14 13 11 15 15 14 11 13 12 13 12 12 11 8 9 6 5 11 4 5 7 4 9 3 1 6 4 2 2 5 4 5 6 5 5 5 5 4 4 5 6 5 9
14 13 13 12 14 14 10 11 11 12 11 12 10 10 8 7 6 6 8 6 7 5 4 0 2 3 4 2 6 2 7 7 6 5 4 4 5 4 3 4 4 5 5
16 14 14 11 14 14 10 8 10 10 8 9 7 9 10 8 8 5 7 5 7 8 5 3 2 3 4 3 3 6 4 8 7 5 4 2 4 3 3 2 3 3 5
15 13 14 13 12 13 13 10 12 10 9 9 7 9 9 9 9 7 6 8 12 6 4 2 2 5 4 4 4 4 7 3 4 7 4 3 4 3 3 1 4 1 6
17 15 13 14 11 14 12 15 10 8 6 6 8 9 12 12 9 9 8 7 10 5 8 2 3 2 1 3 5 4 4 3 3 5 8 5 4 3 2 2 3 4 3
18 16 15 15 13 12 12 10 10 8 7 7 9 6 7 6 9 11 9 9 9 7 5 5 4 5 1 2 4 3 1 3 3 4 1 3 4 3 1 4 1 3 5
Wind_Direction
132 130 116 111 111 107 106 105 96 91 89 87 87 86 87 89 92 92 93 96 92 95 94 91 90 87 81 81 83 83 85 85 82 77 79 85 83 92 99 95 89 98 95
135 132 119 113 113 109 106 104 98 91 87 87 86 88 91 92 94 94 92 97 95 96 94 89 86 84 81 79 79 82 85 80 76 79 68 68 77 89 97 102 117 99 94
135 132 123 122 117 112 109 106 101 97 91 89 92 93 91 93 93 96 101 97 97 96 90 89 83 85 84 84 81 85 87 81 68 83 78 66 76 84 90 95 91 91 91
129 128 126 120 114 115 112 105 98 94 90 86 94 98 94 97 95 96 102 98 95 92 89 85 84 87 82 83 81 82 89 86 70 83 86 87 75 79 85 84 88 87 84
136 134 133 124 120 113 107 105 101 100 94 91 95 97 99 100 99 97 97 99 95 90 88 85 86 81 83 84 84 84 88 73 66 64 78 73 77 77 82 78 77 84 86
125 136 131 126 123 123 118 112 110 101 100 96 95 98 97 103 104 101 97 95 92 90 87 84 85 81 86 85 87 92 86 84 79 74 67 80 81 83 79 85 84 82 82
132 130 130 126 117 114 112 109 116 114 106 104 101 99 100 104 107 104 95 93 93 90 87 85 85 82 83 84 88 97 90 76 77 77 76 77 85 90 80 85 85 82 79
136 135 123 123 120 118 120 112 114 115 112 109 108 99 101 111 108 106 97 96 94 88 83 82 82 82 81 84 85 95 91 98 75 80 76 77 79 85 83 77 80 83 83
136 127 126 119 121 118 120 115 116 113 116 118 116 106 104 114 113 109 99 100 92 85 82 82 81 81 81 81 84 92 91 81 87 84 72 69 72 77 79 77 71 71 68
119 128 134 132 118 106 107 120 121 122 119 119 117 107 101 101 105 96 98 103 90 87 85 80 76 73 73 77 81 81 76 76 79 80 86 83 75 75 75 73 71 66 65
140 134 142 103 125 138 112 114 112 115 113 109 114 106 93 98 103 104 117 103 92 83 78 72 72 68 71 63 66 68 73 86 85 83 79 78 79 76 73 72 71 71 68
145 138 138 134 141 122 119 121 111 100 114 122 119 97 112 120 118 122 112 104 93 80 69 64 64 61 64 39 50 66 81 80 79 75 71 76 79 78 77 76 74 71 70
153 130 126 121 135 117 129 104 116 109 111 126 113 115 119 110 103 112 101 81 76 48 56 42 25 68 87 79 76 78 80 80 77 75 71 77 80 81 81 80 79 78 75
148 134 132 144 146 127 128 107 127 131 134 127 138 116 111 111 119 121 121 117 99 96 75 69 68 94 87 79 84 75 82 83 83 65 67 75 79 84 84 84 83 80 75
152 146 144 144 144 139 122 128 129 132 134 137 123 131 117 124 121 121 128 109 113 106 84 78 80 85 91 86 84 80 75 85 88 76 59 74 80 84 87 85 83 79 74
154 150 145 148 133 155 128 128 128 133 133 131 138 131 122 125 124 122 111 102 113 74 82 85 100 85 92 86 87 84 83 72 92 92 61 62 77 84 85 85 82 77 70
159 158 151 147 149 163 132 128 127 133 133 135 142 126 130 125 129 128 126 117 89 76 75 66 83 88 84 83 93 97 79 85 75 86 95 53 48 66 79 81 77 69 62
157 157 152 153 152 135 135 133 132 135 138 142 137 135 141 146 135 106 103 99 117 82 90 83 92 90 94 100 102 98 94 84 82 77 82 85 91 14 51 71 70 66 59
157 157 154 155 154 147 152 137 142 140 140 143 144 148 149 133 133 103 121 133 98 81 104 95 93 85 103 117 108 98 96 94 85 85 70 99 73 87 68 76 66 62 58
156 168 151 158 156 155 156 144 146 145 149 151 152 162 139 153 138 147 133 128 119 119 120 78 81 86 87 92 102 109 102 94 93 83 78 91 93 93 88 79 34 32 43
164 172 159 161 159 161 154 149 153 147 153 160 159 168 166 163 167 141 150 139 121 46 91 121 109 47 99 84 161 110 105 102 91 87 86 99 73 102 81 63 60 47 7
167 173 181 181 169 166 165 161 162 162 161 157 181 173 167 176 176 165 130 161 170 106 132 98 103 100 88 2 64 140 149 136 93 89 103 96 96 82 58 74 43 37 45
172 179 185 193 177 170 179 161 153 151 164 155 172 176 186 178 182 169 168 155 160 148 163 112 119 73 107 65 47 15 331 123 133 113 105 100 96 87 54 34 58 20 11
174 180 185 192 192 185 172 165 177 156 165 183 181 185 191 188 186 185 201 188 170 227 135 132 156 118 353 109 104 28 46 112 13 135 134 98 120 109 46 49 12 71 25
177 180 182 184 195 181 199 176 157 164 172 167 177 182 199 203 186 191 204 195 181 156 215 153 161 140 351 53 90 121 97 102 348 4 156 124 151 93 62 32 15 353 353
179 180 179 184 186 186 187 177 182 186 162 150 184 176 174 189 199 196 204 204 204 194 191 192 202 183 66 158 79 36 6 44 105 344 13 168 237 155 290 213 165 352 329